[[{"header":{"parameterUnit":"m.s-1","parameterCategory":1,"la1":30.2991,"la2":30.254,"lo1":-89.0895,"lo2":-89.0444,"dy":0.0017,"dx":0.0017,"nx":28,"ny":28,"refTime":"2025-04-03T09:00:00:Z","depth":0,"parameterNumber":2,"parameterNumberName":"U-component_of_WINDS"},"data":[0,0,0,0,0,0,0,0,0,0,0,0,0,0,0,0,0,0,0,0,0,0,0,0,0,0,0,0,0,0,0,0,0,0,0,0,0,0,0,0,0,0,0,0,0,0,0,0,0,0,0,0,0,0,0,0,0,0,-6.1174,-6.1174,0,-6.1233,-6.1234,-6.1235,-6.118,-6.1178,-6.1176,-6.1173,-6.1231,-6.1234,-6.1238,0,0,0,0,0,0,0,0,0,0,0,0,0,-6.1009,-6.1012,-6.1174,-6.1174,-6.1175,-6.1233,-6.1234,-6.1235,-6.118,-6.1178,-6.1175,-6.1172,-6.1229,-6.1234,-6.1238,0,0,0,0,0,0,0,0,0,0,0,0,0,-6.1076,-6.1013,-6.1173,-6.1155,-6.1154,-6.1233,-6.1234,-6.1235,-6.1181,-6.1178,-6.1174,-6.1171,-6.1228,-6.1233,-6.1238,-6.1338,0,0,-6.1255,-6.1257,0,0,0,0,0,0,0,0,-6.1072,-6.1082,-6.1157,-6.1156,-6.1155,-6.1196,-6.1197,-6.1269,-6.1182,-6.1171,-6.1173,-6.117,-6.1221,-6.1227,-6.1245,-6.134,-6.1343,-6.1255,-6.1258,-6.1261,-6.1262,0,0,0,0,0,0,0,-6.1067,-6.1079,-6.1197,-6.1158,-6.1157,-6.1143,-6.1148,-6.121,-6.1214,-6.1171,-6.1167,-6.1176,-6.122,-6.124,-6.1246,-6.1344,-6.1255,-6.126,-6.1263,-6.1265,-6.1522,-6.1525,0,0,0,0,0,0,-6.1065,-6.1075,-6.1195,-6.1199,-6.1105,-6.1148,-6.1155,-6.1186,-6.1213,-6.1214,-6.1178,-6.1173,-6.1233,-6.124,-6.1248,-6.1364,-6.1261,-6.1266,-6.1269,-6.1518,-6.1522,-6.1526,0,0,0,0,0,0,-6.1062,-6.1076,-6.1193,-6.1136,-6.115,-6.1155,-6.119,-6.1189,-6.1209,-6.1218,-6.1218,-6.1198,-6.1231,-6.1241,-6.1316,-6.1365,-6.1268,-6.1273,-6.1514,-6.1519,-6.1524,-6.1598,0,0,0,0,0,0,-6.1057,-6.1076,-6.1114,-6.1138,-6.1153,-6.1261,-6.1194,-6.1193,-6.1219,-6.1212,-6.1237,-6.1238,-6.1229,-6.1308,-6.1321,-6.1371,-6.1277,-6.1509,-6.1516,-6.1523,-6.1592,-6.1606,-6.1618,0,0,0,0,0,-6.1052,-6.1132,-6.1116,-6.1131,-6.1201,-6.1264,-6.1272,-6.1261,-6.1223,-6.1261,-6.1267,-6.1237,-6.1359,-6.1316,-6.133,-6.1383,-6.1506,-6.1514,-6.1522,-6.1586,-6.1603,-6.1618,0,0,0,0,0,0,-6.1112,-6.1134,-6.1117,-6.1208,-6.1234,-6.1254,-6.1301,-6.128,-6.1317,-6.1309,-6.1293,-6.1299,-6.1378,-6.1389,-6.1341,-6.148,-6.1426,-6.1437,-6.1469,-6.1486,-6.1499,-6.1493,-6.1282,0,0,0,0,0,-6.1136,-6.1186,-6.1202,-6.128,-6.1295,-6.1297,-6.1323,-6.1313,-6.1339,-6.1349,-6.1361,-6.1387,-6.143,-6.1459,-6.15,-6.1594,-6.1598,-6.1637,-6.1651,-6.1661,-6.167,-6.1719,-6.1736,-6.1553,-6.1553,-6.1553,0,0,-6.1185,-6.1204,-6.1236,-6.1293,-6.1312,-6.1363,-6.1306,-6.1362,-6.1399,-6.1357,-6.1428,-6.1439,-6.1466,-6.1551,-6.1589,-6.1562,-6.1722,-6.1672,-6.168,-6.1683,-6.1729,-6.1746,-6.1762,-6.1558,-6.1557,-6.1557,0,0,-6.13,-6.1321,-6.1387,-6.1409,-6.144,-6.144,-6.1457,-6.1481,-6.1486,-6.1558,-6.1528,-6.1571,-6.1648,-6.1668,-6.1689,-6.1814,-6.1787,-6.1829,-6.1896,-6.1943,-6.1958,-6.197,-6.2013,-6.2028,-6.1838,-6.1838,-6.1838,0,-6.1357,-6.1433,-6.1424,-6.1482,-6.1507,-6.1475,-6.1541,-6.1562,-6.1605,-6.1622,-6.1593,-6.1688,-6.1704,-6.1792,-6.1823,-6.1842,-6.1858,-6.1823,-6.1957,-6.1969,-6.1981,-6.2021,-6.2037,-6.1843,-6.1842,-6.1842,-6.1841,0,-6.15,-6.1554,-6.1604,-6.1647,-6.1678,-6.1741,-6.1739,-6.1772,-6.176,-6.1764,-6.1837,-6.1856,-6.19,-6.1921,-6.1909,-6.2008,-6.199,-6.196,-6.1904,-6.2003,-6.204,-6.2056,-6.1849,-6.1848,-6.1846,-6.1845,0,0,-6.1651,-6.169,-6.1708,-6.1727,-6.176,-6.1801,-6.1862,-6.1906,-6.1933,-6.1965,-6.2014,-6.2081,-6.2052,-6.2076,-6.2066,-6.2109,-6.2205,-6.2073,-6.2073,-6.2094,-6.2312,-6.2332,-6.235,-6.2189,-6.2192,-6.2194,-6.2308,0,-6.1765,-6.1871,-6.1866,-6.1965,-6.2013,-6.1984,-6.2037,-6.2062,-6.2068,-6.2109,-6.2115,-6.2162,-6.2123,-6.2136,-6.2178,-6.2184,-6.2247,-6.2176,-6.2231,-6.2233,-6.2221,-6.237,-6.2392,-6.2498,-6.2323,-6.2326,-6.2328,0,-6.1911,-6.1949,-6.2053,-6.2079,-6.2099,-6.2147,-6.2187,-6.2228,-6.2256,-6.2257,-6.2285,-6.2268,-6.2328,-6.2276,-6.2357,-6.2309,-6.2332,-6.2339,-6.2343,-6.2344,-6.2284,-6.2372,-6.2532,-6.2547,-6.2351,-6.2349,-6.2347,0,-6.2007,-6.2085,-6.2156,-6.2174,-6.2207,-6.2241,-6.2256,-6.2281,-6.2308,-6.2344,-6.2361,-6.2403,-6.2425,-6.2457,-6.2452,-6.2415,-6.2535,-6.2482,-6.2535,-6.2535,-6.2558,-6.2556,-6.272,-6.2579,-6.2579,-6.2579,-6.2578,0,-6.2133,-6.2197,-6.22,-6.2244,-6.2315,-6.2308,-6.2378,-6.2389,-6.2412,-6.2457,-6.2436,-6.2477,-6.2471,-6.2512,-6.251,-6.2576,-6.2587,-6.2588,-6.2586,-6.2588,-6.2587,-6.26,-6.2591,-6.2583,-6.2582,-6.2581,-6.258,0,-6.225,-6.2255,-6.2331,-6.2357,-6.2365,-6.2416,-6.2437,-6.2478,-6.2484,-6.254,-6.2553,-6.2561,-6.2609,-6.2609,-6.2664,-6.2662,-6.2743,-6.2734,-6.2733,-6.273,-6.2782,-6.2776,-6.2958,-6.298,-6.2828,-6.2829,-6.283,0,-6.2328,-6.2377,-6.2409,-6.2438,-6.2456,-6.2503,-6.2531,-6.2527,-6.2557,-6.2593,-6.263,-6.2677,-6.2713,-6.2792,-6.2801,-6.2843,-6.2833,-6.2894,-6.2838,-6.2839,-6.283,-6.2825,-6.2829,-6.2903,-6.2905,-6.2906,-6.2907,0,-6.2465,-6.2466,-6.2508,-6.2551,-6.2586,-6.262,-6.2651,-6.2676,-6.2675,-6.271,-6.276,-6.2788,-6.2846,-6.2891,-6.2932,-6.2946,-6.2926,-6.2925,-6.2939,-6.294,-6.2936,-6.2936,-6.2759,-6.292,-6.2919,-6.2918,-6.2917,-6.2916,-6.2563,-6.2605,-6.2634,-6.2681,-6.2705,-6.2735,-6.2774,-6.2786,-6.2828,-6.2874,-6.287,-6.2925,-6.2952,-6.3005,-6.3023,-6.3065,-6.3043,-6.3064,-6.3069,-6.3073,-6.3077,-6.2933,-6.3073,-6.3072,-6.3072,-6.3072,-6.3072,0,-6.2696,-6.2714,-6.2758,-6.2803,-6.2841,-6.2822,-6.2856,-6.2887,-6.2936,-6.2965,-6.3002,-6.3059,-6.3104,-6.3118,-6.3162,-6.3192,-6.3184,-6.3204,-6.3199,-6.3202,-6.3096,-6.3078,-6.3209,-6.3209,-6.3209,-6.3209,-6.3209,-6.3209,-6.2769,-6.2838,-6.2843,-6.2923,-6.294,-6.2995,-6.3016,-6.3043,-6.3065,-6.313,-6.3168,-6.3178,-6.32,-6.3245,-6.3285,-6.3288,-6.3303,-6.3326,-6.3325,-6.3224,-6.321,-6.3197,-6.3179,-6.333,-6.333,-6.3427,-6.3428,-6.3429]},{"header":{"parameterUnit":"m.s-1","parameterCategory":1,"la1":30.2991,"la2":30.254,"lo1":-89.0895,"lo2":-89.0444,"dy":0.0017,"dx":0.0017,"nx":28,"ny":28,"refTime":"2025-04-03T09:00:00:Z","depth":0,"parameterNumber":3,"parameterNumberName":"V-component_of_WINDS"},"data":[0,0,0,0,0,0,0,0,0,0,0,0,0,0,0,0,0,0,0,0,0,0,0,0,0,0,0,0,0,0,0,0,0,0,0,0,0,0,0,0,0,0,0,0,0,0,0,0,0,0,0,0,0,0,0,0,0,0,3.4426,3.4427,0,3.4518,3.4519,3.452,3.4543,3.4543,3.4542,3.4542,3.4632,3.4635,3.4638,0,0,0,0,0,0,0,0,0,0,0,0,0,3.4266,3.4269,3.4426,3.4427,3.4428,3.4518,3.4519,3.4521,3.4544,3.4543,3.4542,3.4541,3.4631,3.4634,3.4638,0,0,0,0,0,0,0,0,0,0,0,0,0,3.4345,3.427,3.4425,3.445,3.4454,3.4518,3.4519,3.4521,3.4544,3.4543,3.4542,3.4541,3.463,3.4634,3.4638,3.4683,0,0,3.4652,3.4654,0,0,0,0,0,0,0,0,3.434,3.435,3.4446,3.4449,3.4452,3.4519,3.4496,3.4575,3.4544,3.4509,3.4542,3.4541,3.4594,3.4602,3.4621,3.4687,3.4691,3.4652,3.4655,3.4657,3.4658,0,0,0,0,0,0,0,3.4335,3.4346,3.4462,3.4447,3.4451,3.4456,3.4466,3.4511,3.4555,3.4512,3.4514,3.4525,3.4596,3.4617,3.4623,3.4692,3.4652,3.4656,3.4659,3.466,3.4802,3.4803,0,0,0,0,0,0,3.4325,3.4342,3.4459,3.4465,3.4393,3.446,3.4471,3.4498,3.4555,3.4563,3.4526,3.4526,3.4609,3.4618,3.4626,3.4684,3.4657,3.4661,3.4663,3.4801,3.4803,3.4804,0,0,0,0,0,0,3.4322,3.4336,3.4455,3.4404,3.442,3.4463,3.4494,3.45,3.4521,3.4565,3.4573,3.4539,3.4609,3.462,3.467,3.4688,3.4663,3.4667,3.48,3.4802,3.4803,3.4799,0,0,0,0,0,0,3.4317,3.4334,3.4352,3.4404,3.4422,3.4498,3.4495,3.4503,3.4529,3.453,3.4579,3.4587,3.4609,3.4663,3.4674,3.4693,3.467,3.4798,3.4801,3.4803,3.4798,3.48,3.4803,0,0,0,0,0,3.4311,3.4346,3.4353,3.4367,3.4446,3.4499,3.4509,3.4536,3.453,3.4549,3.4578,3.4585,3.4684,3.4668,3.468,3.4701,3.4797,3.48,3.4802,3.4797,3.48,3.4803,0,0,0,0,0,0,3.4292,3.4353,3.4361,3.4414,3.4452,3.4503,3.4526,3.4538,3.4576,3.4575,3.4605,3.4616,3.4664,3.4687,3.4668,3.4749,3.474,3.4746,3.4732,3.4735,3.4737,3.4731,3.4674,0,0,0,0,0,3.4294,3.4334,3.4384,3.4425,3.4444,3.4482,3.4506,3.4524,3.4563,3.4578,3.4611,3.4647,3.4687,3.4712,3.4751,3.4801,3.4813,3.4822,3.4824,3.4826,3.483,3.4861,3.4866,3.4812,3.4812,3.4812,0,0,3.4298,3.4337,3.4359,3.4423,3.4454,3.4493,3.4495,3.4536,3.4566,3.4584,3.4634,3.4659,3.4702,3.4753,3.4776,3.4773,3.4848,3.4829,3.483,3.4834,3.4864,3.4869,3.4873,3.4814,3.4813,3.4813,0,0,3.4327,3.4359,3.4399,3.4431,3.4479,3.4504,3.4513,3.4564,3.4582,3.4633,3.4648,3.4683,3.475,3.4781,3.4805,3.4848,3.4857,3.4859,3.4872,3.4901,3.4905,3.4909,3.4926,3.4931,3.4863,3.4863,3.4863,0,3.4326,3.4387,3.4417,3.4459,3.4486,3.4507,3.4547,3.4576,3.4633,3.4652,3.4648,3.4735,3.4764,3.4824,3.4835,3.4853,3.4865,3.4854,3.4903,3.4907,3.4911,3.4927,3.4933,3.4863,3.4863,3.4863,3.4863,0,3.4384,3.4427,3.4452,3.451,3.4541,3.4581,3.4616,3.4644,3.4659,3.4685,3.4737,3.4774,3.4822,3.4837,3.4851,3.4899,3.4896,3.4897,3.4889,3.4916,3.4932,3.4938,3.4864,3.4864,3.4863,3.4863,0,0,3.4402,3.4478,3.4487,3.4514,3.457,3.4603,3.4644,3.4693,3.4716,3.4755,3.4791,3.4849,3.4851,3.4879,3.4897,3.4922,3.4956,3.4921,3.4922,3.4927,3.5012,3.5012,3.5019,3.4962,3.4963,3.4964,3.5009,0,3.4438,3.4516,3.4544,3.4607,3.4647,3.4669,3.4705,3.4743,3.4768,3.4805,3.4833,3.4874,3.4873,3.489,3.4917,3.4946,3.4974,3.4943,3.4996,3.4997,3.4985,3.5027,3.5026,3.5066,3.5015,3.5017,3.5017,0,3.4491,3.4534,3.4601,3.4654,3.4672,3.4704,3.4753,3.4788,3.4831,3.4848,3.488,3.4897,3.4942,3.4931,3.4993,3.4972,3.4995,3.5013,3.5015,3.5021,3.5009,3.5035,3.508,3.5086,3.5027,3.5026,3.5025,0,3.4499,3.4573,3.4624,3.4646,3.4709,3.4732,3.4758,3.4801,3.4829,3.4871,3.4889,3.4934,3.4959,3.4994,3.5022,3.5012,3.5082,3.5074,3.5097,3.5097,3.5111,3.511,3.5161,3.5124,3.5124,3.5124,3.5124,0,3.4537,3.4578,3.4629,3.466,3.4707,3.4739,3.4784,3.4812,3.485,3.4887,3.4907,3.4941,3.4976,3.5014,3.5037,3.5085,3.5096,3.5111,3.5116,3.511,3.5108,3.5126,3.5124,3.5126,3.5125,3.5125,3.5125,0,3.4555,3.459,3.4647,3.4703,3.4718,3.475,3.4797,3.4828,3.4855,3.4901,3.4914,3.4956,3.5002,3.5034,3.5093,3.5108,3.5161,3.5165,3.5147,3.515,3.5172,3.517,3.5237,3.5248,3.5203,3.5203,3.5204,0,3.4577,3.461,3.467,3.4697,3.4724,3.4767,3.4797,3.483,3.486,3.4914,3.4938,3.4986,3.5027,3.51,3.5135,3.518,3.5187,3.5207,3.5193,3.5186,3.5189,3.5187,3.5191,3.5209,3.5209,3.521,3.521,0,3.4614,3.4631,3.4674,3.4724,3.4759,3.4799,3.484,3.486,3.4901,3.4933,3.4982,3.5014,3.5075,3.5123,3.5172,3.5199,3.5211,3.5214,3.5222,3.5216,3.5205,3.5213,3.5154,3.5212,3.5212,3.5212,3.5212,3.5212,3.4636,3.4667,3.4715,3.4762,3.4797,3.4834,3.4867,3.49,3.4941,3.4996,3.5012,3.5063,3.5107,3.5175,3.5202,3.5242,3.5241,3.5252,3.5255,3.5258,3.5259,3.5198,3.5251,3.5251,3.5251,3.5251,3.5251,0,3.4675,3.4708,3.4751,3.4809,3.4846,3.4857,3.4903,3.4933,3.4979,3.5019,3.5059,3.5116,3.5163,3.5203,3.5251,3.5276,3.5283,3.5287,3.5286,3.5293,3.5256,3.5245,3.5281,3.5281,3.5281,3.5281,3.5281,3.5281,3.47,3.4754,3.4776,3.4847,3.4879,3.4931,3.4956,3.4991,3.5024,3.5088,3.5128,3.5154,3.5194,3.5246,3.529,3.53,3.5318,3.5321,3.5333,3.5298,3.5295,3.5292,3.5281,3.5324,3.5324,3.5366,3.5367,3.5367]}]]